Frontier, WY

6:22 PM MST on February 05, 2016 (GMT -0700)
Kemmerer Municipal

Weather History for KEMM - August, 2013

Change the Weather History Date:

Friday, August 16, 2013

  Actual Average Record
Temperature  
Mean Temperature 68 °F -  
Max Temperature 87 °F 79 °F 88 °F (1971)
Min Temperature 49 °F 43 °F 28 °F (1968)
Cooling Degree Days 3    
Growing Degree Days 18 (Base 50)    
Moisture  
Dew Point 19 °F    
Average Humidity 17    
Maximum Humidity 35    
Minimum Humidity 5    
Precipitation  
Precipitation 0.00 in - - ()
Sea Level Pressure  
Sea Level Pressure 30.33 in    
Wind  
Wind Speed 9 mph (NW)    
Max Wind Speed 18 mph    
Max Gust Speed 25 mph    
Visibility 10 miles    
Events      
Averages and records for this station are not official NWS values.
T = Trace of Precipitation, MM = Missing Value Source: NWS Daily Summary

Daily Weather History Graph

Daily Weather History Graph

Search for Another Location

Airport or City:

Trip Planner

Search our weather history database for the weather conditions in past years. The results will help you decide how hot, cold, wet, or windy it might be!

Date:

Astronomy

Aug. 16, 2013 Rise Set
Actual Time 6:31 AM MDT 8:20 PM MDT
Civil Twilight 6:01 AM MDT 8:50 PM MDT
Nautical Twilight 5:25 AM MDT 9:26 PM MDT
Astronomical Twilight 4:46 AM MDT 10:05 PM MDT
Moon 4:44 PM MDT (8/16) 1:36 AM MDT (8/16)
Length of Visible Light 14h 48m
Length of Day
13h 48m
Waxing Gibbous, 75% of the Moon is Illuminated
Aug 16
Waxing Gibbous
Aug 20
Full
Aug 28
Last Quarter
Sep 5
New
Sep 12
First Quarter

Hourly Weather History & Observations

Time (MDT) Temp. Dew Point Humidity Pressure Visibility Wind Dir Wind Speed Gust Speed Precip Events Conditions
12:15 AM 63.3 °F 17.1 °F 17% 30.32 in 10.0 mi North 6.9 mph - N/A   Clear
12:35 AM 58.6 °F 21.7 °F 24% 30.32 in 10.0 mi NNW 10.4 mph - N/A   Clear
12:55 AM 60.4 °F 19.0 °F 20% 30.32 in 10.0 mi Calm Calm - N/A   Clear
1:15 AM 60.3 °F 18.9 °F 20% 30.32 in 10.0 mi North 5.8 mph - N/A   Clear
1:35 AM 57.2 °F 20.7 °F 24% 30.32 in 10.0 mi North 10.4 mph - N/A   Clear
1:55 AM 56.8 °F 21.0 °F 25% 30.32 in 10.0 mi North 12.7 mph - N/A   Clear
2:15 AM 57.6 °F 20.1 °F 23% 30.31 in 10.0 mi North 12.7 mph - N/A   Clear
2:35 AM 55.9 °F 21.4 °F 26% 30.31 in 10.0 mi NNW 12.7 mph - N/A   Clear
2:55 AM 54.9 °F 20.7 °F 26% 30.32 in 10.0 mi NNW 11.5 mph - N/A   Clear
3:15 AM 55.4 °F 20.1 °F 25% 30.32 in 10.0 mi NNW 12.7 mph - N/A   Clear
3:35 AM 54.9 °F 19.9 °F 26% 30.31 in 10.0 mi NNW 13.8 mph - N/A   Clear
3:55 AM 53.6 °F 20.8 °F 28% 30.31 in 10.0 mi North 13.8 mph - N/A   Clear
4:15 AM 52.5 °F 20.8 °F 29% 30.31 in 10.0 mi NNW 12.7 mph - N/A   Clear
4:35 AM 52.7 °F 21.0 °F 29% 30.30 in 10.0 mi North 12.7 mph - N/A   Clear
4:55 AM 52.3 °F 21.0 °F 29% 30.31 in 10.0 mi North 13.8 mph - N/A   Clear
5:15 AM 52.5 °F 20.8 °F 29% 30.31 in 10.0 mi NNW 13.8 mph - N/A   Clear
5:35 AM 52.2 °F 21.2 °F 30% 30.31 in 10.0 mi North 10.4 mph - N/A   Clear
5:55 AM 51.1 °F 21.7 °F 32% 30.32 in 10.0 mi NNW 8.1 mph - N/A   Clear
6:15 AM 50.7 °F 21.2 °F 31% 30.33 in 10.0 mi NW 10.4 mph - N/A   Clear
6:35 AM 50.9 °F 20.3 °F 30% 30.34 in 10.0 mi NE 3.5 mph - N/A   Clear
6:55 AM 50.0 °F 21.6 °F 33% 30.34 in 10.0 mi North 4.6 mph - N/A   Clear
7:15 AM 49.8 °F 23.0 °F 35% 30.34 in 10.0 mi North 3.5 mph - N/A   Clear
7:35 AM 52.5 °F 21.9 °F 30% 30.35 in 10.0 mi North 5.8 mph - N/A   Clear
7:55 AM 54.0 °F 23.4 °F 30% 30.35 in 10.0 mi North 10.4 mph - N/A   Clear
8:15 AM 55.0 °F 26.2 °F 33% 30.36 in 10.0 mi North 8.1 mph - N/A   Clear
8:35 AM 56.7 °F 27.5 °F 33% 30.36 in 10.0 mi North 8.1 mph - N/A   Clear
8:55 AM 58.8 °F 26.4 °F 29% 30.36 in 10.0 mi North 8.1 mph - N/A   Clear
9:15 AM 62.1 °F 24.4 °F 24% 30.36 in 10.0 mi North 5.8 mph - N/A   Clear
9:35 AM 67.3 °F 24.3 °F 20% 30.36 in 10.0 mi North 3.5 mph - N/A   Clear
9:55 AM 70.5 °F 22.6 °F 16% 30.36 in 10.0 mi Calm Calm - N/A   Clear
10:15 AM 73.4 °F 21.7 °F 14% 30.37 in 10.0 mi WSW 3.5 mph - N/A   Unknown
10:35 AM 75.6 °F 21.2 °F 13% 30.37 in 10.0 mi Calm Calm - N/A   Clear
10:55 AM 76.8 °F 20.5 °F 12% 30.37 in 10.0 mi Calm Calm - N/A   Clear
11:15 AM 77.9 °F 20.8 °F 12% 30.37 in 10.0 mi South 4.6 mph - N/A   Clear
11:35 AM 79.7 °F 20.5 °F 11% 30.37 in 10.0 mi Calm Calm - N/A   Clear
11:55 AM 80.8 °F 19.6 °F 10% 30.36 in 10.0 mi SW 5.8 mph - N/A   Clear
12:15 PM 81.7 °F 18.1 °F 9% 30.35 in 10.0 mi SSE 3.5 mph - N/A   Clear
12:35 PM 83.1 °F 16.0 °F 8% 30.35 in 10.0 mi Calm Calm - N/A   Clear
12:55 PM 84.0 °F 13.3 °F 7% 30.34 in 10.0 mi West 8.1 mph - N/A   Clear
1:15 PM 84.6 °F 12.9 °F 7% 30.34 in 10.0 mi WSW 8.1 mph 16.1 mph N/A   Clear
1:35 PM 85.1 °F 11.1 °F 6% 30.34 in 10.0 mi West 8.1 mph - N/A   Clear
1:55 PM 85.6 °F 10.6 °F 6% 30.33 in 10.0 mi WNW 11.5 mph 19.6 mph N/A   Clear
2:15 PM 85.6 °F 9.1 °F 6% 30.33 in 10.0 mi SW 10.4 mph 17.3 mph N/A   Clear
2:35 PM 86.4 °F 8.8 °F 5% 30.32 in 10.0 mi North 5.8 mph 9.2 mph N/A   Clear
2:55 PM 86.4 °F 9.3 °F 6% 30.32 in 10.0 mi NW 6.9 mph 19.6 mph N/A   Clear
3:15 PM 86.7 °F 9.7 °F 6% 30.32 in 10.0 mi West 16.1 mph 19.6 mph N/A   Clear
3:35 PM 87.1 °F 10.0 °F 6% 30.32 in 10.0 mi SSW 6.9 mph 20.7 mph N/A   Clear
3:55 PM 86.9 °F 10.2 °F 6% 30.30 in 10.0 mi West 11.5 mph 23.0 mph N/A   Clear
4:15 PM 85.6 °F 12.4 °F 6% 30.30 in 10.0 mi West 15.0 mph 20.7 mph N/A   Clear
4:35 PM 84.9 °F 13.3 °F 7% 30.30 in 10.0 mi WSW 6.9 mph 19.6 mph N/A   Clear
4:55 PM 86.4 °F 14.9 °F 7% 30.30 in 10.0 mi West 17.3 mph 24.2 mph N/A   Clear
5:15 PM 86.2 °F 16.0 °F 7% 30.30 in 10.0 mi West 10.4 mph 17.3 mph N/A   Clear
5:35 PM 85.8 °F 16.0 °F 7% 30.29 in 10.0 mi WNW 12.7 mph - N/A   Clear
5:55 PM 86.0 °F 15.8 °F 7% 30.29 in 10.0 mi WSW 18.4 mph 24.2 mph N/A   Clear
6:15 PM 85.3 °F 16.5 °F 8% 30.29 in 10.0 mi WSW 15.0 mph 25.3 mph N/A   Clear
6:35 PM - - N/A% 30.29 in 10.0 mi West 13.8 mph - N/A   Clear
6:55 PM - - N/A% 30.29 in 10.0 mi West 12.7 mph - N/A   Clear
7:15 PM 81.7 °F 16.9 °F 9% 30.29 in 10.0 mi West 11.5 mph - N/A   Clear
7:35 PM 80.2 °F 17.1 °F 9% 30.29 in 10.0 mi West 13.8 mph 17.3 mph N/A   Clear
7:55 PM 77.7 °F 17.2 °F 10% 30.30 in 10.0 mi West 12.7 mph - N/A   Clear
8:15 PM 75.7 °F 18.7 °F 12% 30.30 in 10.0 mi West 8.1 mph - N/A   Clear
8:35 PM 73.6 °F 19.4 °F 13% 30.31 in 10.0 mi WNW 9.2 mph - N/A   Clear
8:55 PM 72.9 °F 19.8 °F 13% 30.32 in 10.0 mi West 9.2 mph - N/A   Clear
9:15 PM 71.2 °F 19.6 °F 14% 30.32 in 10.0 mi West 6.9 mph - N/A   Clear
9:35 PM 70.0 °F 19.2 °F 15% 30.33 in 10.0 mi North 4.6 mph - N/A   Clear
9:55 PM 68.4 °F 18.3 °F 15% 30.33 in 10.0 mi North 5.8 mph - N/A   Clear
10:15 PM 67.3 °F 17.6 °F 15% 30.33 in 10.0 mi NNW 6.9 mph - N/A   Clear
10:35 PM 67.5 °F 17.8 °F 15% 30.33 in 10.0 mi NNW 6.9 mph - N/A   Clear
10:55 PM 66.6 °F 17.8 °F 15% 30.32 in 10.0 mi NNW 6.9 mph - N/A   Clear
11:15 PM 65.7 °F 18.5 °F 16% 30.32 in 10.0 mi NNW 5.8 mph - N/A   Clear
11:35 PM 64.0 °F 19.9 °F 18% 30.32 in 10.0 mi North 6.9 mph - N/A   Clear
11:55 PM 62.6 °F 20.8 °F 20% 30.32 in 10.0 mi NNW 4.6 mph - N/A   Clear